[[{"header":{"parameterUnit":"m.s-1","parameterCategory":1,"la1":30.2991,"la2":30.254,"lo1":-89.0895,"lo2":-89.0444,"dy":0.0017,"dx":0.0017,"nx":28,"ny":28,"refTime":"2025-11-07T03:00:00:Z","depth":0,"parameterNumber":2,"parameterNumberName":"U-component_of_WINDS"},"data":[0,0,0,0,0,0,0,0,0,0,0,0,0,0,0,0,0,0,0,0,0,0,0,0,0,0,0,0,0,0,0,0,0,0,0,0,0,0,0,0,0,0,0,0,0,0,0,0,0,0,0,0,0,0,0,0,0,0,-2.5827,-2.5828,0,-2.5948,-2.595,-2.5951,-2.5904,-2.5901,-2.5898,-2.5896,-2.602,-2.6025,-2.6031,0,0,0,0,0,0,0,0,0,0,0,0,0,-2.5556,-2.5561,-2.5827,-2.5828,-2.583,-2.5948,-2.595,-2.5951,-2.5905,-2.5901,-2.5898,-2.5894,-2.6018,-2.6025,-2.6032,0,0,0,0,0,0,0,0,0,0,0,0,0,-2.5675,-2.5563,-2.5826,-2.5821,-2.5821,-2.5948,-2.595,-2.5952,-2.5905,-2.5901,-2.5897,-2.5893,-2.6015,-2.6024,-2.6033,-2.6172,0,0,-2.606,-2.6064,0,0,0,0,0,0,0,0,-2.5668,-2.5685,-2.582,-2.5821,-2.5822,-2.5907,-2.59,-2.6026,-2.5906,-2.5873,-2.5896,-2.5891,-2.5985,-2.5997,-2.6029,-2.6178,-2.6183,-2.6061,-2.6066,-2.607,-2.6072,0,0,0,0,0,0,0,-2.566,-2.568,-2.5875,-2.5822,-2.5823,-2.5813,-2.5825,-2.5923,-2.5952,-2.5876,-2.5873,-2.5888,-2.5985,-2.602,-2.6031,-2.6185,-2.606,-2.6068,-2.6074,-2.6077,-2.6457,-2.6461,0,0,0,0,0,0,-2.5651,-2.5673,-2.5871,-2.5878,-2.5733,-2.5821,-2.5835,-2.5884,-2.595,-2.5956,-2.5891,-2.5885,-2.6007,-2.6021,-2.6035,-2.6204,-2.607,-2.6078,-2.6083,-2.6452,-2.6458,-2.6463,0,0,0,0,0,0,-2.5646,-2.5669,-2.5866,-2.5775,-2.5799,-2.583,-2.5886,-2.5888,-2.5923,-2.5962,-2.5967,-2.5922,-2.6004,-2.6023,-2.6139,-2.6207,-2.6082,-2.609,-2.6447,-2.6454,-2.646,-2.6541,0,0,0,0,0,0,-2.5638,-2.5668,-2.572,-2.5776,-2.5804,-2.5967,-2.589,-2.5894,-2.5939,-2.5932,-2.5992,-2.5998,-2.6002,-2.6126,-2.6148,-2.6217,-2.6097,-2.644,-2.645,-2.6458,-2.6532,-2.655,-2.6565,0,0,0,0,0,-2.5629,-2.5737,-2.5723,-2.5747,-2.587,-2.5971,-2.5987,-2.599,-2.5944,-2.5998,-2.6023,-2.5996,-2.6197,-2.6138,-2.6162,-2.6235,-2.6436,-2.6447,-2.6458,-2.6525,-2.6546,-2.6565,0,0,0,0,0,0,-2.5687,-2.5744,-2.5729,-2.5859,-2.5911,-2.5963,-2.603,-2.6013,-2.6078,-2.6069,-2.607,-2.6084,-2.6205,-2.6232,-2.6166,-2.6375,-2.631,-2.6326,-2.6352,-2.6373,-2.6389,-2.638,-2.6104,0,0,0,0,0,-2.5715,-2.5792,-2.5838,-2.5948,-2.5975,-2.5999,-2.6043,-2.6041,-2.6095,-2.6116,-2.615,-2.6203,-2.6278,-2.6327,-2.6398,-2.6537,-2.655,-2.6599,-2.6616,-2.6629,-2.6642,-2.6719,-2.6742,-2.6498,-2.6498,-2.6498,0,0,-2.5774,-2.5815,-2.5863,-2.5961,-2.6001,-2.6081,-2.6017,-2.6104,-2.6164,-2.6129,-2.6241,-2.6268,-2.6327,-2.6456,-2.6514,-2.6482,-2.6713,-2.6643,-2.6653,-2.6659,-2.6733,-2.6756,-2.6776,-2.6505,-2.6504,-2.6503,0,0,-2.5921,-2.596,-2.6057,-2.6099,-2.616,-2.6176,-2.6199,-2.6255,-2.6272,-2.6385,-2.6361,-2.6433,-2.6562,-2.6606,-2.6645,-2.6814,-2.6791,-2.6837,-2.6922,-2.6997,-2.7017,-2.7034,-2.7095,-2.7116,-2.6851,-2.6851,-2.6851,0,-2.5986,-2.6105,-2.6108,-2.6199,-2.6243,-2.6217,-2.6316,-2.6357,-2.6438,-2.647,-2.6434,-2.6597,-2.6635,-2.6775,-2.6816,-2.6849,-2.6876,-2.6829,-2.7014,-2.7031,-2.7047,-2.7105,-2.7128,-2.6856,-2.6856,-2.6855,-2.6855,0,-2.6182,-2.6266,-2.6337,-2.6418,-2.6471,-2.6565,-2.6583,-2.6637,-2.6632,-2.6652,-2.6768,-2.6814,-2.6895,-2.6928,-2.6923,-2.7068,-2.7046,-2.7012,-2.6946,-2.7075,-2.713,-2.7152,-2.6864,-2.6862,-2.686,-2.6859,0,0,-2.6366,-2.6451,-2.6477,-2.6514,-2.6582,-2.6647,-2.6741,-2.6821,-2.6868,-2.6926,-2.7006,-2.7118,-2.7087,-2.7132,-2.7133,-2.7199,-2.7331,-2.7157,-2.7158,-2.7188,-2.7495,-2.7519,-2.7545,-2.7318,-2.7322,-2.7325,-2.749,0,-2.6519,-2.6684,-2.6692,-2.6842,-2.692,-2.6899,-2.6981,-2.7032,-2.7054,-2.7124,-2.7149,-2.7228,-2.7182,-2.7209,-2.7274,-2.7301,-2.7393,-2.729,-2.7392,-2.7395,-2.7377,-2.7573,-2.7599,-2.7752,-2.7511,-2.7515,-2.7517,0,-2.6719,-2.6785,-2.6943,-2.7003,-2.7036,-2.7109,-2.7185,-2.7252,-2.7311,-2.7323,-2.7375,-2.7367,-2.7464,-2.7397,-2.7532,-2.7462,-2.7505,-2.7525,-2.7531,-2.754,-2.7463,-2.7587,-2.7801,-2.7824,-2.7551,-2.7548,-2.7546,0,-2.6838,-2.6966,-2.7078,-2.7111,-2.7183,-2.7236,-2.7268,-2.7323,-2.7372,-2.7438,-2.747,-2.7547,-2.7589,-2.7649,-2.7663,-2.7613,-2.7799,-2.7732,-2.7812,-2.7812,-2.7851,-2.7848,-2.8074,-2.788,-2.7879,-2.7879,-2.7878,0,-2.7007,-2.7104,-2.7133,-2.7202,-2.7312,-2.732,-2.7429,-2.7458,-2.7508,-2.7582,-2.7569,-2.7639,-2.7654,-2.7728,-2.774,-2.7851,-2.787,-2.7882,-2.7884,-2.7883,-2.7882,-2.791,-2.79,-2.7885,-2.7884,-2.7882,-2.7881,0,-2.7157,-2.718,-2.7301,-2.736,-2.7378,-2.7456,-2.7507,-2.7574,-2.7596,-2.7691,-2.7714,-2.7748,-2.7835,-2.7856,-2.7959,-2.7967,-2.8098,-2.809,-2.8079,-2.8078,-2.8157,-2.8149,-2.8408,-2.8443,-2.8226,-2.8228,-2.823,0,-2.7263,-2.7338,-2.7406,-2.7456,-2.7491,-2.7571,-2.7621,-2.7634,-2.7687,-2.7762,-2.782,-2.7906,-2.7975,-2.8115,-2.815,-2.8229,-2.8223,-2.8308,-2.8234,-2.8232,-2.8224,-2.8219,-2.8227,-2.8321,-2.8324,-2.8326,-2.8327,0,-2.7448,-2.7457,-2.753,-2.7609,-2.7669,-2.7732,-2.7791,-2.7832,-2.7854,-2.7915,-2.8004,-2.8058,-2.8165,-2.825,-2.8331,-2.8365,-2.8351,-2.8351,-2.8373,-2.8373,-2.8363,-2.837,-2.8116,-2.8344,-2.8342,-2.8341,-2.834,-2.834,-2.7579,-2.7646,-2.7705,-2.7788,-2.7835,-2.7892,-2.7958,-2.7989,-2.8064,-2.8152,-2.8156,-2.8254,-2.8313,-2.8421,-2.846,-2.8537,-2.8511,-2.8544,-2.8552,-2.856,-2.8567,-2.8352,-2.8552,-2.8552,-2.8551,-2.8551,-2.855,0,-2.7764,-2.7802,-2.7879,-2.7963,-2.8029,-2.8011,-2.8077,-2.8133,-2.822,-2.8277,-2.8346,-2.845,-2.8534,-2.8577,-2.8661,-2.8714,-2.871,-2.8736,-2.8731,-2.874,-2.8585,-2.8557,-2.8738,-2.8738,-2.8738,-2.8738,-2.8738,-2.8738,-2.7868,-2.798,-2.7997,-2.8133,-2.817,-2.8266,-2.8306,-2.8359,-2.8405,-2.8522,-2.8592,-2.862,-2.8672,-2.876,-2.8837,-2.8847,-2.8879,-2.8908,-2.8915,-2.877,-2.875,-2.8732,-2.8706,-2.8915,-2.8915,-2.9064,-2.9065,-2.9066]},{"header":{"parameterUnit":"m.s-1","parameterCategory":1,"la1":30.2991,"la2":30.254,"lo1":-89.0895,"lo2":-89.0444,"dy":0.0017,"dx":0.0017,"nx":28,"ny":28,"refTime":"2025-11-07T03:00:00:Z","depth":0,"parameterNumber":3,"parameterNumberName":"V-component_of_WINDS"},"data":[0,0,0,0,0,0,0,0,0,0,0,0,0,0,0,0,0,0,0,0,0,0,0,0,0,0,0,0,0,0,0,0,0,0,0,0,0,0,0,0,0,0,0,0,0,0,0,0,0,0,0,0,0,0,0,0,0,0,0.1136,0.1136,0,0.1055,0.1054,0.1054,0.105,0.1051,0.1052,0.1053,0.0965,0.0962,0.0958,0,0,0,0,0,0,0,0,0,0,0,0,0,0.1285,0.1282,0.1136,0.1135,0.1134,0.1056,0.1054,0.1053,0.105,0.1051,0.1052,0.1053,0.0966,0.0962,0.0958,0,0,0,0,0,0,0,0,0,0,0,0,0,0.1214,0.1281,0.1137,0.1123,0.1121,0.1056,0.1054,0.1053,0.1049,0.1051,0.1052,0.1054,0.0967,0.0962,0.0958,0.0899,0,0,0.0943,0.0941,0,0,0,0,0,0,0,0,0.1218,0.1208,0.1126,0.1124,0.1122,0.1064,0.1075,0.1001,0.1049,0.1076,0.1053,0.1054,0.0996,0.0989,0.0971,0.0895,0.0891,0.0942,0.0939,0.0937,0.0936,0,0,0,0,0,0,0,0.1223,0.1212,0.1104,0.1125,0.1122,0.112,0.1112,0.1061,0.1029,0.1074,0.1074,0.1064,0.0995,0.0975,0.0969,0.0889,0.0942,0.0938,0.0935,0.0933,0.0762,0.0761,0,0,0,0,0,0,0.1231,0.1216,0.1107,0.1102,0.1174,0.1116,0.1107,0.1081,0.103,0.1023,0.1063,0.1065,0.0983,0.0974,0.0965,0.0894,0.0937,0.0933,0.093,0.0764,0.0762,0.076,0,0,0,0,0,0,0.1234,0.1221,0.111,0.1159,0.1144,0.1112,0.1083,0.1079,0.1059,0.1022,0.1016,0.1049,0.0984,0.0972,0.0916,0.0891,0.0931,0.0926,0.0766,0.0763,0.0761,0.0749,0,0,0,0,0,0,0.1238,0.1222,0.12,0.1158,0.1142,0.1063,0.1082,0.1076,0.1051,0.1052,0.1006,0.1,0.0984,0.0923,0.0911,0.0885,0.0922,0.0768,0.0765,0.0762,0.0752,0.0747,0.0742,0,0,0,0,0,0.1244,0.1199,0.1199,0.1186,0.1114,0.1061,0.1052,0.1035,0.1049,0.1026,0.1003,0.1002,0.0896,0.0917,0.0904,0.0875,0.0769,0.0766,0.0762,0.0754,0.0748,0.0743,0,0,0,0,0,0,0.1236,0.1193,0.1193,0.1133,0.1101,0.1061,0.1031,0.1029,0.0991,0.0994,0.0974,0.0963,0.0908,0.0886,0.0911,0.0816,0.0834,0.0827,0.0832,0.0826,0.0822,0.0827,0.0918,0,0,0,0,0,0.1228,0.119,0.1154,0.1105,0.1089,0.1063,0.1039,0.103,0.0995,0.0981,0.0953,0.0919,0.0878,0.0851,0.0811,0.0749,0.0739,0.0723,0.0719,0.0715,0.0709,0.0675,0.0668,0.0748,0.0748,0.0748,0,0,0.1209,0.1181,0.1158,0.1102,0.1077,0.1037,0.1051,0.1008,0.0979,0.0974,0.092,0.0899,0.0859,0.08,0.0772,0.078,0.0685,0.071,0.0708,0.0703,0.0671,0.0663,0.0656,0.0746,0.0746,0.0747,0,0,0.1155,0.1131,0.1088,0.1062,0.1024,0.1007,0.0997,0.0958,0.0944,0.089,0.0886,0.085,0.078,0.0752,0.0728,0.0667,0.0665,0.0655,0.063,0.0597,0.0591,0.0585,0.0563,0.0556,0.0649,0.0649,0.0649,0,0.1137,0.1078,0.1065,0.1023,0.0999,0.0996,0.0952,0.0927,0.0877,0.086,0.087,0.0783,0.0756,0.0691,0.0676,0.0657,0.0645,0.0659,0.0593,0.0587,0.0582,0.0561,0.0552,0.0648,0.0648,0.0648,0.0649,0,0.1058,0.1017,0.0987,0.0941,0.0914,0.0871,0.085,0.0824,0.0818,0.08,0.0745,0.0713,0.0667,0.0651,0.0644,0.0585,0.0591,0.0598,0.0614,0.0573,0.0553,0.0545,0.0647,0.0647,0.0647,0.0648,0,0,0.0994,0.0944,0.0933,0.0913,0.0871,0.0839,0.0797,0.0754,0.0732,0.0698,0.0661,0.0603,0.061,0.0583,0.0573,0.0545,0.0499,0.0554,0.0553,0.0545,0.0432,0.0427,0.0418,0.0498,0.0496,0.0495,0.0436,0,0.0935,0.0861,0.0849,0.0783,0.0745,0.0743,0.0706,0.0677,0.066,0.0625,0.0606,0.0565,0.0576,0.0561,0.0533,0.051,0.0476,0.0514,0.0462,0.0461,0.0471,0.0408,0.0402,0.0347,0.0428,0.0426,0.0425,0,0.0856,0.0823,0.0754,0.072,0.0704,0.0671,0.0631,0.0598,0.0565,0.0555,0.0527,0.0521,0.0476,0.0497,0.0434,0.0461,0.0439,0.0426,0.0423,0.0416,0.044,0.0398,0.0329,0.0321,0.0413,0.0414,0.0415,0,0.0817,0.0755,0.0706,0.0688,0.0647,0.0624,0.0605,0.0574,0.0549,0.0515,0.0499,0.0459,0.0437,0.0406,0.0389,0.0406,0.0328,0.0347,0.0318,0.0318,0.03,0.0301,0.0225,0.0288,0.0288,0.0288,0.0288,0,0.0752,0.0709,0.0687,0.0657,0.061,0.0597,0.055,0.0532,0.0504,0.047,0.0465,0.0433,0.0413,0.0378,0.0365,0.0315,0.0305,0.0295,0.0292,0.0295,0.0296,0.0279,0.0282,0.0286,0.0286,0.0287,0.0287,0,0.0698,0.0682,0.0628,0.0595,0.0586,0.0552,0.0523,0.0493,0.0478,0.0435,0.0424,0.0399,0.0357,0.0338,0.0286,0.0277,0.0221,0.022,0.0232,0.0231,0.0202,0.0205,0.0112,0.0099,0.0171,0.017,0.017,0,0.0657,0.0625,0.0589,0.0567,0.0548,0.0512,0.0488,0.0475,0.045,0.0411,0.0386,0.0345,0.0311,0.0245,0.0221,0.0182,0.018,0.015,0.0173,0.0178,0.0178,0.018,0.0177,0.0145,0.0144,0.0144,0.0143,0,0.0586,0.058,0.0547,0.0511,0.0483,0.0453,0.0424,0.0406,0.0388,0.036,0.0319,0.0293,0.0242,0.0201,0.016,0.014,0.0138,0.0137,0.0128,0.0129,0.0138,0.0132,0.022,0.0138,0.0139,0.0139,0.0139,0.0139,0.0537,0.0509,0.048,0.0443,0.042,0.0394,0.0365,0.0347,0.0313,0.0271,0.0265,0.0221,0.019,0.0136,0.0115,0.008,0.0087,0.0073,0.007,0.0067,0.0065,0.0145,0.0072,0.0073,0.0073,0.0073,0.0073,0,0.0465,0.0447,0.0414,0.0375,0.0346,0.035,0.0318,0.0293,0.0255,0.0227,0.0195,0.0148,0.0109,0.0084,0.0045,0.0021,0.002,0.0011,0.0012,0.0008,0.0061,0.0073,0.0014,0.0014,0.0014,0.0014,0.0014,0.0014,0.0424,0.0377,0.0368,0.031,0.0292,0.025,0.0232,0.0208,0.0186,0.0134,0.0103,0.0087,0.006,0.002,-0.0016,-0.0022,-0.0037,-0.0046,-0.0052,-0.0002,0.0004,0.001,0.002,-0.0049,-0.0049,-0.0103,-0.0103,-0.0104]}]]